XE2RCS-1 Weather Reports


Display with metric or nautical units.
time (UTC)temp
F
wind
direction
speed
MPH
gust
MPH
rain 1hr
in
rain 24hr
in
rain mn
in
humidity
%
barometer
mb
20260502152259 54 360 11.0 0.0 0.00 0.00 0.00 83 1020.0
20260502151258 54 360 11.0 0.0 0.00 0.00 0.00 82 1019.0
20260502150258 54 20 11.0 0.0 0.00 0.00 0.00 76 1019.0
20260502130250 53 10 17.0 0.0 0.00 0.00 0.00 79 1018.0
20260502123248 54 10 17.0 0.0 0.00 0.00 0.00 75 1018.0
20260502122248 54 303 8.0 13.0 0.00 0.00 0.00 66 1020.0
20260502121247 54 303 8.0 13.0 0.00 0.00 0.00 64 1020.0
20260502120247 54 303 8.0 13.0 0.00 0.00 0.00 63 1017.0
20260502115246 54 303 8.0 13.0 0.00 0.00 0.00 63 1017.0
20260502114245 54 303 8.0 13.0 0.00 0.00 0.00 63 1016.0
20260502113245 54 303 8.0 13.0 0.00 0.00 0.00 63 1016.0
20260502112244 54 303 8.0 13.0 0.00 0.00 0.00 64 1015.0
20260502111243 54 303 8.0 13.0 0.00 0.00 0.00 65 1015.0
20260502110243 54 4 5.0 11.0 0.00 0.00 0.00 67 1015.0
20260502105242 54 305 5.0 11.0 0.00 0.00 0.00 67 1015.0
20260502104242 54 305 5.0 11.0 0.00 0.00 0.00 69 1015.0
20260502103241 55 359 5.0 11.0 0.00 0.00 0.00 70 1015.0
20260502102240 55 359 5.0 11.0 0.00 0.00 0.00 70 1015.0
20260502101240 55 359 5.0 11.0 0.00 0.00 0.00 70 1015.0
20260502100239 55 359 5.0 11.0 0.00 0.00 0.00 70 1015.0
20260502091236 55 359 5.0 11.0 0.00 0.00 0.00 66 1015.0
20260502090236 54 359 5.0 11.0 0.00 0.00 0.00 65 1015.0
20260502071229 55 354 5.0 8.0 0.00 0.00 0.00 41 1015.0
20260502070229 55 354 5.0 8.0 0.00 0.00 0.00 38 1015.0
20260502065228 55 354 5.0 8.0 0.00 0.00 0.00 37 1014.0
20260502064227 56 354 5.0 8.0 0.00 0.00 0.00 35 1014.0
20260502063227 56 354 5.0 8.0 0.00 0.00 0.00 28 1014.0
20260502062226 56 349 4.0 8.0 0.00 0.00 0.00 27 1013.0
20260502061225 56 4 3.0 10.0 0.00 0.00 0.00 26 1013.0
20260502060225 56 354 4.0 11.0 0.00 0.00 0.00 24 1013.0
20260502055224 56 14 8.0 11.0 0.00 0.00 0.00 29 1013.0
20260502054223 57 14 8.0 11.0 0.00 0.00 0.00 27 1013.0
20260502053223 57 14 9.0 11.0 0.00 0.00 0.00 10 1013.0
20260502052222 57 359 8.0 14.0 0.00 0.00 0.00 19 1013.0
20260502051222 57 349 5.0 11.0 0.00 0.00 0.00 20 1013.0
20260502050221 57 359 5.0 13.0 0.00 0.00 0.00 24 1013.0
20260502045220 57 359 5.0 13.0 0.00 0.00 0.00 24 1013.0
20260502044219 57 16 5.0 13.0 0.00 0.00 0.00 28 1013.0
20260502043219 57 359 5.0 14.0 0.00 0.00 0.00 32 1014.0
20260502042218 59 21 9.0 10.0 0.00 0.00 0.00 10 1011.0
20260502041218 59 21 9.0 10.0 0.00 0.00 0.00 10 1011.0
20260502040217 59 20 18.0 0.0 0.00 0.00 0.00 10 1011.0
20260502035217 60 20 18.0 0.0 0.00 0.00 0.00 82 1011.0
20260502034216 62 20 18.0 0.0 0.00 0.00 0.00 93 1010.0
20260502033215 62 20 18.0 0.0 0.00 0.00 0.00 93 1010.0
20260502032214 62 20 18.0 0.0 0.00 0.00 0.00 85 1010.0
20260502031214 63 20 18.0 0.0 0.00 0.00 0.00 85 1010.0
20260502030214 63 20 18.0 0.0 0.00 0.00 0.00 85 1010.0
20260502025213 63 20 18.0 0.0 0.00 0.00 0.00 85 1010.0
20260502024212 63 20 18.0 0.0 0.00 0.00 0.00 86 1010.0
20260502023211 65 20 18.0 0.0 0.00 0.00 0.00 86 1009.0
20260502022211 65 20 18.0 0.0 0.00 0.00 0.00 85 1009.0
20260502021216 65 20 18.0 0.0 0.00 0.00 0.00 85 1009.0
20260502020210 65 20 18.0 0.0 0.00 0.00 0.00 84 1009.0
20260502015209 66 30 17.0 0.0 0.00 0.00 0.00 84 1009.0
20260502014208 67 30 17.0 0.0 0.00 0.00 0.00 83 1009.0
20260502013208 68 30 17.0 0.0 0.00 0.00 0.00 82 1008.0
20260502012207 68 30 17.0 0.0 0.00 0.00 0.00 82 1008.0
20260502011207 69 30 17.0 0.0 0.00 0.00 0.00 82 1008.0
20260502010206 68 20 18.0 0.0 0.00 0.00 0.00 72 1007.0
20260502005205 69 20 18.0 0.0 0.00 0.00 0.00 76 1007.0
20260502004205 71 20 18.0 0.0 0.00 0.00 0.00 86 1007.0
20260502003204 76 20 18.0 0.0 0.00 0.00 0.00 10 1006.0
20260502002203 76 20 18.0 0.0 0.00 0.00 0.00 10 1006.0
20260502001203 72 20 18.0 0.0 0.00 0.00 0.00 63 1006.0
20260502000203 73 20 14.0 0.0 0.00 0.00 0.00 62 1006.0
20260501235201 73 20 14.0 0.0 0.00 0.00 0.00 61 1006.0
20260501234201 77 20 14.0 0.0 0.00 0.00 0.00 69 1006.0
20260501233200 77 20 14.0 0.0 0.00 0.00 0.00 52 1006.0
20260501232200 77 20 14.0 0.0 0.00 0.00 0.00 51 1006.0
20260501231159 77 20 14.0 0.0 0.00 0.00 0.00 50 1006.0
20260501230159 78 10 11.0 0.0 0.00 0.00 0.00 49 1006.0
20260501225158 78 10 11.0 0.0 0.00 0.00 0.00 48 1006.0
20260501224157 79 10 12.0 0.0 0.00 0.00 0.00 46 1006.0
20260501223157 80 10 12.0 0.0 0.00 0.00 0.00 44 1006.0
20260501222156 80 10 12.0 0.0 0.00 0.00 0.00 42 1005.0
20260501221155 82 10 12.0 0.0 0.00 0.00 0.00 41 1005.0
20260501220155 82 360 11.0 0.0 0.00 0.00 0.00 40 1005.0
20260501215154 82 360 11.0 0.0 0.00 0.00 0.00 38 1005.0
20260501214153 80 360 12.0 0.0 0.00 0.00 0.00 42 1005.0
20260501213153 80 360 12.0 0.0 0.00 0.00 0.00 43 1006.0
20260501212152 80 360 12.0 0.0 0.00 0.00 0.00 43 1006.0
20260501211152 80 360 12.0 0.0 0.00 0.00 0.00 42 1006.0
20260501210151 82 360 8.0 0.0 0.00 0.00 0.00 35 1006.0
20260501205151 81 360 8.0 0.0 0.00 0.00 0.00 34 1006.0
20260501204150 81 360 8.0 0.0 0.00 0.00 0.00 35 1006.0
20260501203150 81 360 8.0 0.0 0.00 0.00 0.00 37 1006.0
20260501202149 81 360 8.0 0.0 0.00 0.00 0.00 38 1007.0
20260501201149 80 360 8.0 0.0 0.00 0.00 0.00 35 1006.0
20260501200148 79 360 8.0 0.0 0.00 0.00 0.00 38 1006.0
20260501195147 78 360 8.0 0.0 0.00 0.00 0.00 39 1006.0
20260501194147 77 360 8.0 0.0 0.00 0.00 0.00 48 1006.0
20260501193146 77 360 8.0 0.0 0.00 0.00 0.00 51 1006.0
20260501192145 77 360 8.0 0.0 0.00 0.00 0.00 52 1007.0
20260501191145 76 360 8.0 0.0 0.00 0.00 0.00 56 1007.0
20260501184143 76 10 9.0 0.0 0.00 0.00 0.00 57 1007.0
20260501183142 76 10 9.0 0.0 0.00 0.00 0.00 59 1007.0
20260501182142 76 360 10.0 0.0 0.00 0.00 0.00 76 1007.0
20260501181141 78 360 10.0 0.0 0.00 0.00 0.00 10 1007.0
20260501180140 80 360 10.0 0.0 0.00 0.00 0.00 10 1008.0
20260501175140 80 360 10.0 0.0 0.00 0.00 0.00 10 1008.0
20260501174139 80 360 10.0 0.0 0.00 0.00 0.00 10 1008.0
20260501173138 75 360 11.0 0.0 0.00 0.00 0.00 10 1008.0
20260501172138 77 360 11.0 0.0 0.00 0.00 0.00 10 1009.0
20260501171137 77 360 11.0 0.0 0.00 0.00 0.00 10 1009.0
20260501170137 78 360 11.0 0.0 0.00 0.00 0.00 10 1009.0
20260501165136 78 360 11.0 0.0 0.00 0.00 0.00 10 1009.0
20260501164135 76 360 11.0 0.0 0.00 0.00 0.00 80 1009.0
20260501163135 73 360 11.0 0.0 0.00 0.00 0.00 64 1010.0
20260501162134 73 360 11.0 0.0 0.00 0.00 0.00 64 1010.0
20260501161134 73 360 11.0 0.0 0.00 0.00 0.00 66 1009.0
20260501160133 73 360 8.0 0.0 0.00 0.00 0.00 67 1009.0